Regional Weather Roundup
Issued by NWS Burlington, VT

Home | Current Version | Previous Version | Text Only | Print | Product List | Glossary On
Versions: 1 2 3 4 5 6 7 8 9 10 11 12 13 14 15 16 17 18 19 20 21 22 23 24 25 26 27 28 29 30 31 32 33 34 35 36 37 38 39 40 41 42 43 44 45 46 47 48 49 50
000
ASUS41 KBTV 260730
RWRBTV
VERMONT REGIONAL WEATHER ROUNDUP
NATIONAL WEATHER SERVICE BURLINGTON VT
300 AM EDT SAT JUL 26 2014

NOTE: "FAIR" INDICATES FEW OR NO CLOUDS BELOW 12,000 FEET WITH NO
SIGNIFICANT WEATHER AND/OR OBSTRUCTIONS TO VISIBILITY.

* THESE REPORTS ARE NOT UNDER NWS QUALITY CONTROL AND/OR DO NOT
  REPORT WEATHER SUCH AS PRECIPITATION AND FOG.

VTZ001>019-260800-
_____VERMONT_____


CITY           SKY/WX    TMP DP  RH WIND       PRES   REMARKS
BURLINGTON     SUNNY     60  56  86 CALM      29.93S
MONTPELIER     MOSUNNY   54  54 100 S3        29.99F
MORRISVILLE    SUNNY     54  52  93 CALM      29.96F FOG
ST. JOHNSBURY*   N/A     55  54  96 MISG      29.94S
LYNDONVILLE*   FAIR      56  53  91 CALM      29.97F
MIDDLEBURY*    FAIR      60  58  92 CALM      29.94F
RUTLAND*       SUNNY     55  54  94 SE5       29.98S
SPRINGFIELD    SUNNY     55  54  96 CALM      29.98F
HIGHGATE*      FAIR      65  54  67 CALM      29.90F
NEWPORT*       FAIR     N/A N/A N/A S5        29.94S
BENNINGTON     SUNNY     55  54  96 CALM      29.98F FOG
SUTTON*          N/A     55 N/A N/A MISG        N/A
GALLUP MILLS*    N/A     36 N/A N/A MISG        N/A
UNION VILLAGE*   N/A     55 N/A N/A MISG        N/A
MT. MANSFIELD*   N/A     52 N/A N/A NW16        N/A

_____LAKE CHAMPLAIN_____


CITY           SKY/WX    TMP DP  RH WIND       PRES   REMARKS
COLCHESTER RF*   N/A     68  61  77 S12         N/A
DIAMOND ISL*     N/A     64  57  77 S3          N/A

$$

NYZ007-026>031-035-052-083-260800-
_____NORTHERN NEW YORK_____


CITY           SKY/WX    TMP DP  RH WIND       PRES   REMARKS
PLATTSBURGH    SUNNY     62  53  72 VRB3      29.91F
SARANAC LAKE   MOSUNNY   45  44  97 CALM      29.96F FOG
MASSENA        SUNNY     59  54  83 SW6       29.90F
OGDENSBURG*    SUNNY     57  55  94 S6        29.90F
POTSDAM*       MOSUNNY   61  55  82 SW6       29.91F
PARISHVILLE*     N/A     61 N/A N/A S6          N/A
WATERTOWN      SUNNY     62  51  67 S6        29.92F
FT DRUM        SUNNY     60  55  85 S8        29.93F
ALBANY         MOSUNNY   61  58  90 CALM      29.96F
GLENS FALLS    MOSUNNY   55  54  96 CALM      29.96S FOG

$$
NHZ002-005-011-260800-
_____NEW HAMPSHIRE_____


CITY           SKY/WX    TMP DP  RH WIND       PRES   REMARKS
LEBANON        SUNNY     56  53  90 CALM      29.96S FOG
KEENE          CLOUDY    55  48  76 CALM      29.98F
MT WASHINGTON  DRZL/FOG  45  45 100 W43         N/A  VSB 0
PLYMOUTH       FOG       54  53  97 CALM      29.96S VSB 1
WHITEFIELD     SUNNY     52  49  89 CALM      29.96F

$$

_____REGIONAL QUEBEC LOCATIONS_____


CITY           SKY/WX    TMP DP  RH WIND       PRES   REMARKS
MONTREAL       MOSUNNY   64  54  68 SW13      29.87F
QUEBEC CITY    SUNNY     59  55  88 W9        29.82S
SHERBROOKE     SUNNY     59  54  82 S5        29.90F

_____REGIONAL ONTARIO LOCATIONS_____


CITY           SKY/WX    TMP DP  RH WIND       PRES   REMARKS
OTTAWA         MOSUNNY   57  54  88 S8        29.88F

______KEY______
VSB  - VISIBILITY IN MILES
WCI  - WIND CHILL INDEX
HX   - HEAT INDEX
$$



USA.gov is the U.S. government's official web portal to all federal, state and local government web resources and services.